When you browse on this site, cookies collect data to enhance your experience and personalize the content and advertising you see.
Visit our Privacy Policy to learn more. By continuing to use the site, you agree to this use of cookies and data.
  • In Latvia
  • List of Countries
  • For 7 days
  • Water Temperature
  • Satellite Maps
  • Weather Map
  • Weather Widgets
  • user-avatar
    Login

    Hourly Weather Ischgl

    Today, 16 July, Tuesday

    Time Temperature Precipitation Wind Pressure Humidity
    00:00 +5°C° 0 mm 1 mps 574 mmHg 95%
    01:00 +5°C° 0 mm 1 mps 575 mmHg 97%
    02:00 +4°C° 0 mm 1 mps 574 mmHg 96%
    03:00 +4°C° 0 mm 1 mps 574 mmHg 95%
    04:00 +2°C° 0 mm 0 mps 573 mmHg 94%
    05:00 +4°C° 0 mm 1 mps 574 mmHg 91%
    06:00 +6°C° 0 mm 1 mps 575 mmHg 87%
    07:00 +7°C° 0 mm 1 mps 576 mmHg 84%
    08:00 +8°C° 0 mm 1 mps 576 mmHg 74%
    09:00 +9°C° 0 mm 2 mps 577 mmHg 64%
    10:00 +12°C° 0 mm 2 mps 578 mmHg 54%
    11:00 +13°C° 0 mm 2 mps 578 mmHg 50%
    12:00 +14°C° 0 mm 2 mps 579 mmHg 45%
    13:00 +15°C° 0 mm 2 mps 579 mmHg 40%
    14:00 +15°C° 0 mm 2 mps 579 mmHg 42%
    15:00 +15°C° 0 mm 2 mps 579 mmHg 43%
    16:00 +14°C° 0 mm 3 mps 579 mmHg 45%
    17:00 +14°C° 0 mm 2 mps 578 mmHg 54%
    18:00 +13°C° 0 mm 2 mps 578 mmHg 62%
    19:00 +12°C° 0 mm 2 mps 577 mmHg 71%
    20:00 +9°C° 0 mm 2 mps 577 mmHg 79%
    21:00 +8°C° 0 mm 1 mps 576 mmHg 86%
    22:00 +5°C° 0 mm 0 mps 575 mmHg 94%
    23:00 +4°C° 0 mm 0 mps 575 mmHg 94%

    Tomorrow, 17 July, Wednesday

    Time Temperature Precipitation Wind Pressure Humidity
    00:00 +4°C° 0 mm 0 mps 574 mmHg 95%
    01:00 +3°C° 0 mm 0 mps 574 mmHg 96%
    02:00 +3°C° 0 mm 0 mps 574 mmHg 96%
    03:00 +3°C° 0 mm 0 mps 573 mmHg 95%
    04:00 +3°C° 0 mm 0 mps 573 mmHg 95%
    05:00 +4°C° 0 mm 0 mps 574 mmHg 88%
    06:00 +6°C° 0 mm 0 mps 575 mmHg 81%
    07:00 +8°C° 0 mm 0 mps 576 mmHg 74%
    08:00 +10°C° 0 mm 0 mps 577 mmHg 64%
    09:00 +13°C° 0 mm 1 mps 577 mmHg 54%
    10:00 +15°C° 0 mm 1 mps 578 mmHg 44%
    11:00 +15°C° 0 mm 1 mps 578 mmHg 42%
    12:00 +16°C° 0 mm 2 mps 578 mmHg 40%
    13:00 +17°C° 0 mm 2 mps 579 mmHg 38%
    14:00 +16°C° 0.1 mm 2 mps 578 mmHg 42%
    15:00 +16°C° 0.1 mm 2 mps 578 mmHg 45%
    16:00 +14°C° 0.1 mm 3 mps 578 mmHg 49%
    17:00 +14°C° 0.6 mm 2 mps 577 mmHg 60%
    18:00 +12°C° 0.6 mm 2 mps 576 mmHg 71%
    19:00 +10°C° 0.6 mm 2 mps 575 mmHg 82%
    20:00 +9°C° 0.2 mm 1 mps 575 mmHg 86%
    21:00 +7°C° 0.2 mm 1 mps 574 mmHg 90%
    22:00 +6°C° 0.2 mm 1 mps 573 mmHg 94%
    23:00 +4°C° 0 mm 0 mps 573 mmHg 94%

    Day after tomorrow, 18 July, Thursday

    Time Temperature Precipitation Wind Pressure Humidity
    00:00 +4°C° 0 mm 0 mps 573 mmHg 94%
    01:00 +4°C° 0 mm 0 mps 572 mmHg 94%
    02:00 +4°C° 0 mm 0 mps 572 mmHg 93%
    03:00 +3°C° 0 mm 0 mps 572 mmHg 92%
    04:00 +3°C° 0 mm 0 mps 572 mmHg 91%
    05:00 +5°C° 0 mm 0 mps 573 mmHg 87%
    06:00 +6°C° 0 mm 0 mps 573 mmHg 82%
    07:00 +8°C° 0 mm 1 mps 574 mmHg 77%
    08:00 +10°C° 0 mm 1 mps 575 mmHg 72%
    09:00 +11°C° 0 mm 1 mps 575 mmHg 67%
    10:00 +12°C° 0 mm 1 mps 576 mmHg 61%
    11:00 +13°C° 0.3 mm 1 mps 576 mmHg 60%
    12:00 +13°C° 0.3 mm 2 mps 576 mmHg 59%
    13:00 +14°C° 0.3 mm 2 mps 576 mmHg 58%
    14:00 +13°C° 0.6 mm 2 mps 576 mmHg 62%
    15:00 +13°C° 0.6 mm 2 mps 576 mmHg 66%
    16:00 +13°C° 0.6 mm 2 mps 576 mmHg 69%
    17:00 +12°C° 0.4 mm 2 mps 576 mmHg 74%
    18:00 +10°C° 0.4 mm 2 mps 575 mmHg 79%
    19:00 +9°C° 0.4 mm 2 mps 575 mmHg 84%
    20:00 +9°C° 0 mm 1 mps 575 mmHg 87%
    21:00 +7°C° 0 mm 1 mps 574 mmHg 90%
    22:00 +5°C° 0 mm 0 mps 574 mmHg 93%
    23:00 +5°C° 0 mm 0 mps 574 mmHg 94%

    19 July, Friday

    Time Temperature Precipitation Wind Pressure Humidity
    00:00 +4°C° 0 mm 0 mps 574 mmHg 94%
    01:00 +4°C° 0 mm 0 mps 573 mmHg 94%
    02:00 +4°C° 0 mm 0 mps 573 mmHg 94%
    03:00 +4°C° 0 mm 0 mps 573 mmHg 94%
    04:00 +4°C° 0 mm 0 mps 573 mmHg 93%
    05:00 +5°C° 0 mm 0 mps 574 mmHg 90%
    06:00 +6°C° 0 mm 0 mps 575 mmHg 87%
    07:00 +8°C° 0 mm 1 mps 576 mmHg 84%
    08:00 +10°C° 0 mm 1 mps 576 mmHg 76%
    09:00 +11°C° 0 mm 1 mps 577 mmHg 69%
    10:00 +13°C° 0 mm 1 mps 578 mmHg 61%
    11:00 +14°C° 0 mm 1 mps 578 mmHg 58%
    12:00 +14°C° 0 mm 1 mps 578 mmHg 54%
    13:00 +15°C° 0 mm 1 mps 579 mmHg 51%
    14:00 +15°C° 0.1 mm 2 mps 579 mmHg 52%
    15:00 +15°C° 0.1 mm 2 mps 578 mmHg 53%
    16:00 +15°C° 0.1 mm 2 mps 578 mmHg 53%
    17:00 +14°C° 0.2 mm 2 mps 578 mmHg 62%
    18:00 +13°C° 0.2 mm 2 mps 578 mmHg 71%
    19:00 +12°C° 0.2 mm 2 mps 578 mmHg 80%
    20:00 +10°C° 0.2 mm 1 mps 577 mmHg 85%
    21:00 +8°C° 0.2 mm 1 mps 576 mmHg 90%
    22:00 +5°C° 0.2 mm 0 mps 575 mmHg 95%
    23:00 +5°C° 0 mm 0 mps 575 mmHg 95%

    20 July, Saturday

    Time Temperature Precipitation Wind Pressure Humidity
    00:00 +6°C° 0 mm 1 mps 575 mmHg 95%
    01:00 +6°C° 0 mm 1 mps 575 mmHg 95%
    02:00 +6°C° 0 mm 1 mps 575 mmHg 94%
    03:00 +6°C° 0 mm 1 mps 575 mmHg 94%
    04:00 +6°C° 0 mm 1 mps 574 mmHg 94%
    05:00 +7°C° 0 mm 1 mps 575 mmHg 91%
    06:00 +9°C° 0 mm 1 mps 576 mmHg 88%
    07:00 +9°C° 0 mm 2 mps 577 mmHg 85%
    08:00 +12°C° 0 mm 2 mps 578 mmHg 77%
    09:00 +13°C° 0 mm 1 mps 578 mmHg 68%
    10:00 +15°C° 0 mm 1 mps 579 mmHg 59%
    11:00 +16°C° 0.3 mm 1 mps 579 mmHg 58%
    12:00 +16°C° 0.3 mm 1 mps 579 mmHg 57%
    13:00 +18°C° 0.3 mm 1 mps 580 mmHg 55%
    14:00 +16°C° 1.4 mm 1 mps 579 mmHg 61%
    15:00 +15°C° 1.4 mm 1 mps 579 mmHg 67%
    16:00 +15°C° 1.4 mm 1 mps 578 mmHg 73%
    17:00 +13°C° 1.9 mm 1 mps 578 mmHg 79%
    18:00 +12°C° 1.9 mm 1 mps 577 mmHg 85%
    19:00 +11°C° 1.9 mm 1 mps 577 mmHg 91%
    20:00 +10°C° 2.5 mm 1 mps 577 mmHg 92%
    21:00 +10°C° 2.5 mm 1 mps 577 mmHg 93%
    22:00 +8°C° 2.5 mm 2 mps 577 mmHg 94%
    23:00 +8°C° 2.5 mm 1 mps 577 mmHg 93%

    21 July, Sunday

    Time Temperature Precipitation Wind Pressure Humidity
    00:00 +8°C° 2.5 mm 1 mps 577 mmHg 92%
    01:00 +7°C° 2.5 mm 1 mps 576 mmHg 91%
    02:00 +7°C° 0 mm 1 mps 576 mmHg 89%
    03:00 +7°C° 0 mm 1 mps 576 mmHg 88%
    04:00 +7°C° 0 mm 1 mps 576 mmHg 86%
    05:00 +8°C° 0 mm 1 mps 577 mmHg 84%
    06:00 +9°C° 0 mm 1 mps 577 mmHg 81%
    07:00 +10°C° 0 mm 1 mps 578 mmHg 79%
    08:00 +11°C° 0.1 mm 1 mps 579 mmHg 75%
    09:00 +12°C° 0.1 mm 2 mps 579 mmHg 70%
    10:00 +13°C° 0.1 mm 2 mps 580 mmHg 66%
    11:00 +14°C° 0.3 mm 2 mps 580 mmHg 63%
    12:00 +14°C° 0.3 mm 2 mps 581 mmHg 61%
    13:00 +15°C° 0.3 mm 2 mps 581 mmHg 58%
    14:00 +15°C° 0.3 mm 2 mps 581 mmHg 59%
    15:00 +15°C° 0.3 mm 2 mps 581 mmHg 60%
    16:00 +15°C° 0.3 mm 2 mps 581 mmHg 61%
    17:00 +14°C° 0.1 mm 2 mps 581 mmHg 66%
    18:00 +13°C° 0.1 mm 2 mps 581 mmHg 71%
    19:00 +12°C° 0.1 mm 2 mps 581 mmHg 76%
    20:00 +9°C° 0 mm 2 mps 580 mmHg 82%
    21:00 +9°C° 0 mm 1 mps 579 mmHg 88%
    22:00 +7°C° 0 mm 1 mps 579 mmHg 94%
    23:00 +6°C° 0 mm 1 mps 578 mmHg 95%
    Show more